sat.trackr.live / text

‹ back to catalog

UNISAT-6

NORAD 40012 · 2014-033C

PAYLOAD ACTIVE UNKNOWN

§ Identity

Operator
Country
IT
Launch date
2014-06-19
Launch site
DLS
Launch vehicle
Mass (kg)
RCS (m²)
0.26

Purposes: comms

External: N2YO · Heavens-Above · Gunter

§ Orbital elements

Epoch: 2026-09-10T02:35:00.318048Z

Period
96.73 min
Inclination
97.7990°
Eccentricity
0.0045459
Mean motion
14.88604010 rev/d
Perigee alt
570.6 km
Apogee alt
634.0 km
Semi-major
6,980.4 km
B*
2.9534e-4
RAAN
44.4038°
Arg perigee
147.0142°
Mean anomaly
213.3925°
Rev number
65,879

§ Raw data

UNISAT-61 40012U 14033C   26253.10764257  .00002747  00000+0  29534-3 0  99932 40012  97.7990  44.4038 0045459 147.0142 213.3925 14.88604010658791

JSON: /api/v1/satellites/40012 · /tle

For live sub-satellite position, see the globe view (requires WebGL).

§ Visibility from observer

Set your observer location to see the next 7 days of passes ≥ 10°. The values pass through the URL so the page stays shareable.

No JS? Fill the form by hand. The geolocation button needs JavaScript.

§ Radio — SatNOGS DB

ModeDescriptionDownlinkUplink
FSK 9k6 FSK TLM 437.422 MHz

1 transmitter · refreshed weekly from db.satnogs.org